Regional Weather Roundup
Issued by NWS

Home | Current Version | Previous Version | Text Only | Print | Product List | Glossary Off
Versions: 1 2 3 4 5 6 7 8 9 10 11 12 13 14 15 16 17 18 19 20 21 22 23 24 25 26 27 28 29 30 31 32 33 34 35 36 37 38 39 40 41 42 43 44 45 46 47 48 49 50

000
ASUS45 KBOU 100907
RWRCO

WEATHER ROUNDUP FOR COLORADO
NATIONAL WEATHER SERVICE DENVER/BOULDER CO
200 AM MST WED FEB 10 2016

NOTE: "FAIR" INDICATES FEW OR NO CLOUDS BELOW 12000 FEET WITH NO
SIGNIFICANT WEATHER AND/OR OBSTRUCTIONS TO VISIBILITY.

COZ001>005-013-030-031-101000-
...NORTHWEST COLORADO...

CITY           SKY/WX    TMP DP  RH WIND       PRES   REMARKS
CRAIG          CLOUDY    -1  -5  82 CALM      30.46S
HAYDEN         CLOUDY    19  12  73 E14       30.44R WCI   6
MEEKER         CLOUDY    13   9  84 CALM      30.45S
MOUNT WERNER   NOT AVBL
STEAMBOAT SPGS CLOUDY    15  14  95 CALM      30.47R
WALDEN         CLOUDY     9   3  78 E6        30.43S WCI  -1
$$

COZ006>008-011-101000-
...WEST CENTRAL VALLEYS...

CITY           SKY/WX    TMP DP  RH WIND       PRES   REMARKS
GRAND JUNCTION CLOUDY    20  18  92 E3        30.46R
MONTROSE       CLOUDY    23  15  71 S8        30.48S WCI  14
EAGLE          CLOUDY    12  12 100 CALM      30.53S
RIFLE          CLOUDY    16  11  80 CALM      30.49R
DELTA          CLOUDY    28  22  81 CALM      30.47S
NUCLA          CLOUDY    27  19  74 E6        30.48R WCI  20
$$

COZ017>023-064>068-101000-
...SOUTHWEST COLORADO...

CITY           SKY/WX    TMP DP  RH WIND       PRES   REMARKS
DURANGO        CLOUDY    19  12  74 N7        30.43R WCI  10
CORTEZ         CLOUDY    20  16  84 NE7       30.43R WCI  11
PAGOSA SPRINGS CLOUDY    20  14  77 CALM      30.44S
TELLURIDE      CLOUDY    29   4  33 CALM      30.50R
WOLF CREEK PAS CLOUDY    30  -9  17 CALM      30.57S
$$

COZ009-010-012-014-032>034-037-058>063-101000-
...CENTRAL COLORADO...

CITY           SKY/WX    TMP DP  RH WIND       PRES   REMARKS
ASPEN          CLOUDY    13   6  74 S6        30.45S WCI   4
BUENA VISTA    CLOUDY    21  11  63 CALM      30.43S
COPPER MTN     CLOUDY    28  -9  19 W20G28    30.51S WCI  15
BERTHOUD PASS  FAIR      19   9  63 NW20      30.48S WCI   4
COTTONWOOD PAS CLOUDY    37 -13  11 W12       30.45R
GUNNISON       CLOUDY    -8 -11  84 CALM      30.59S
KREMMLING      CLOUDY    -2  -8  78 CALM      30.54S
LEADVILLE      CLOUDY    15  -1  49 NE6       30.47S WCI   6
MONARCH PASS   CLOUDY    21   7  53 W22       30.61S WCI   5
SALIDA         NOT AVBL
SUNLIGHT       CLOUDY    30   9  40 CALM        N/A
WILKERSON PASS CLOUDY    30  -9  17 NW15G24   30.47F WCI  19
$$

COZ069>075-101000-
...SAN LUIS VALLEY/SANGRE DE CRISTO MOUNTAINS...

CITY           SKY/WX    TMP DP  RH WIND       PRES   REMARKS
ALAMOSA        CLOUDY    17  13  84 SW3       30.44F
LA VETA PASS   CLOUDY    27  12  54 S5        30.43F WCI  21
SAGUACHE       CLOUDY    27  14  59 SW3       30.44S
$$

COZ035-036-038>040-101000-
...NORTHERN COLORADO FRONT RANGE...

CITY           SKY/WX    TMP DP  RH WIND       PRES   REMARKS
DENVER INTL AP CLOUDY    39  15  37 SW17      30.17F
DMNS CITY PARK   N/A     40  12  31 SE12      30.19F
AURORA         CLEAR     38  15  38 S12       30.20F
FRONT RANGE AP   N/A     37  14  38 SW15      30.19F
ERIE MUNI ARPT CLOUDY    40  14  35 SW7       30.16F
BOULDER MUN AP CLOUDY    54   9  16 CALM      30.16F
CENTENNIAL     CLOUDY    41  13  31 SW14      30.21F
BROOMFIELD     CLOUDY    52   9  17 W20G25    30.19F
FORT COLLINS   CLOUDY    27  19  74 N3        30.17S
LONGMONT       CLOUDY    31  17  56 CALM      30.17F
$$

COZ041-046-047-076>085-087-088-101000-
...PIKES PEAK/PALMER DIVIDE AND SOUTHERN FOOTHILLS...

CITY           SKY/WX    TMP DP  RH WIND       PRES   REMARKS
COLO. SPRINGS  CLEAR     35   9  33 N10       30.27F WCI  27
A. F. ACADEMY  CLOUDY    29   8  40 NE7       30.26F WCI  22
SCHRIEVER AFB  FAIR      45   4  18 W17       30.26F
ELLICOTT       NOT AVBL
FALCON         NOT AVBL
FORT CARSON    CLOUDY    32  14  47 NW10      30.24F WCI  23
LIMON          CLOUDY    24  15  68 W12       30.20F WCI  13
MONUMENT HILL  CLOUDY    34   5  29 SW12      30.28F WCI  25
TRINIDAD       CLOUDY    35  16  45 W18       30.28S WCI  24
$$

COZ042>045-048>051-090-091-101000-
...NORTHEAST COLORADO...

CITY           SKY/WX    TMP DP  RH WIND       PRES   REMARKS
GREELEY ARPT   CLOUDY    19  14  79 W5        30.17F WCI  13
AKRON          CLOUDY    34  22  61 W16       30.14F WCI  24
BURLINGTON     CLEAR     34  23  64 SW14      30.16F WCI  25
WRAY           CLEAR     32  26  78 W8        30.12F WCI  25
STERLING       CLOUDY    28  27  93 S7        30.13F WCI  21
HOLYOKE        CLEAR     34  27  75 W10       30.10F WCI  26
FORT MORGAN    CLOUDY    26  22  87 W9        30.16F WCI  16
$$

COZ086-089-092>099-101000-
...SOUTHEAST COLORADO...

CITY           SKY/WX    TMP DP  RH WIND       PRES   REMARKS
PUEBLO         CLOUDY    27  21  78 CALM      30.24F
LA JUNTA       CLOUDY    30  23  75 W9        30.23F WCI  22
LAMAR          CLOUDY    28  24  85 SW10      30.20F WCI  19
SPRINGFIELD      N/A     32  20  61 SW12      30.22F WCI  23
$$



USA.gov is the U.S. government's official web portal to all federal, state and local government web resources and services.